TimeMST,TemperatureF,Dew PointF,Humidity,Sea Level PressureIn,VisibilityMPH,Wind Direction,Wind SpeedMPH,Gust SpeedMPH,PrecipitationIn,Events,Conditions,WindDirDegrees,DateUTC
12:53 AM,43.0,39.0,86,30.01,7.0,WNW,4.6,-,N/A,,Overcast,300,2013-03-03 07:53:00
1:53 AM,42.1,39.0,89,30.01,7.0,WNW,4.6,-,N/A,,Overcast,290,2013-03-03 08:53:00
2:53 AM,41.0,37.9,89,29.99,6.0,Calm,Calm,-,N/A,,Overcast,0,2013-03-03 09:53:00
3:53 AM,41.0,37.4,87,30.00,7.0,Calm,Calm,-,N/A,,Mostly Cloudy,0,2013-03-03 10:53:00
4:53 AM,41.0,39.0,93,30.00,6.0,Calm,Calm,-,0.00,Rain,Light Rain,0,2013-03-03 11:53:00
5:53 AM,41.0,39.0,93,30.00,6.0,Calm,Calm,-,0.00,Rain,Light Rain,0,2013-03-03 12:53:00
6:53 AM,42.1,39.9,92,29.99,5.0,Calm,Calm,-,0.00,,Overcast,0,2013-03-03 13:53:00
7:53 AM,42.1,39.9,92,30.00,4.0,Calm,Calm,-,0.01,Rain,Light Rain,0,2013-03-03 14:53:00
8:53 AM,42.1,39.9,92,30.01,4.0,WNW,4.6,-,0.00,,Overcast,300,2013-03-03 15:53:00
9:41 AM,42.8,41.0,93,30.01,6.0,West,8.1,-,N/A,,Mostly Cloudy,270,2013-03-03 16:41:00
9:53 AM,44.1,39.9,85,30.02,9.0,WNW,10.4,-,N/A,,Overcast,290,2013-03-03 16:53:00
10:53 AM,44.1,37.0,76,30.04,10.0,NW,17.3,21.9,N/A,,Overcast,320,2013-03-03 17:53:00
11:53 AM,44.1,26.1,49,30.05,10.0,NW,21.9,28.8,N/A,,Overcast,310,2013-03-03 18:53:00
12:53 PM,46.0,19.0,34,30.04,10.0,NW,20.7,27.6,N/A,,Scattered Clouds,320,2013-03-03 19:53:00
1:53 PM,46.9,15.1,28,30.02,10.0,NNW,21.9,31.1,N/A,,Clear,330,2013-03-03 20:53:00
2:53 PM,46.9,8.1,21,30.01,10.0,NNW,21.9,32.2,N/A,,Clear,330,2013-03-03 21:53:00
3:53 PM,46.9,8.1,21,30.01,10.0,North,18.4,-,N/A,,Clear,350,2013-03-03 22:53:00
4:53 PM,45.0,8.1,22,30.02,10.0,NNW,24.2,32.2,N/A,,Clear,340,2013-03-03 23:53:00
5:53 PM,43.0,5.0,21,30.03,10.0,NNW,20.7,31.1,N/A,,Clear,340,2013-03-04 00:53:00
6:53 PM,39.9,9.0,28,30.04,10.0,NNW,12.7,-,N/A,,Clear,330,2013-03-04 01:53:00
7:53 PM,37.0,12.9,37,30.07,10.0,NW,8.1,-,N/A,,Clear,310,2013-03-04 02:53:00
8:53 PM,35.1,15.1,44,30.08,10.0,NW,6.9,-,N/A,,Clear,310,2013-03-04 03:53:00
9:53 PM,35.1,12.9,40,30.10,10.0,WNW,5.8,-,N/A,,Clear,290,2013-03-04 04:53:00
10:53 PM,32.0,15.1,50,30.12,10.0,WNW,9.2,-,N/A,,Clear,300,2013-03-04 05:53:00
11:53 PM,30.0,15.1,54,30.14,10.0,West,8.1,-,N/A,,Clear,270,2013-03-04 06:53:00